When you browse on this site, cookies collect data to enhance your experience and personalize the content and advertising you see.
Visit our Privacy Policy to learn more. By continuing to use the site, you agree to this use of cookies and data.
  • In Hungary
  • List of Countries
  • For 7 days
  • Water Temperature
  • Weather Map
  • News
  • Weather Widgets
  • user-avatar
    Login

    Hourly Weather St Albans

    Today, 14 November, Thursday

    Time Temperature Precipitation Wind Pressure Humidity
    00:00 -2°C° 0 mm 1 mps 750 mmHg 67%
    01:00 -2°C° 0 mm 1 mps 750 mmHg 66%
    02:00 -2°C° 0 mm 1 mps 750 mmHg 66%
    03:00 -2°C° 0 mm 1 mps 750 mmHg 67%
    04:00 -2°C° 0 mm 1 mps 750 mmHg 67%
    05:00 -2°C° 0 mm 1 mps 750 mmHg 67%
    06:00 -2°C° 0 mm 1 mps 751 mmHg 66%
    07:00 -1°C° 0 mm 1 mps 751 mmHg 64%
    08:00 -1°C° 0 mm 2 mps 751 mmHg 57%
    09:00 +2°C° 0 mm 2 mps 751 mmHg 50%
    10:00 +5°C° 0 mm 2 mps 751 mmHg 43%
    11:00 +6°C° 0 mm 2 mps 751 mmHg 43%
    12:00 +7°C° 0 mm 3 mps 750 mmHg 42%
    13:00 +8°C° 0 mm 3 mps 750 mmHg 42%
    14:00 +8°C° 0 mm 2 mps 750 mmHg 47%
    15:00 +7°C° 0 mm 2 mps 750 mmHg 52%
    16:00 +8°C° 0 mm 1 mps 750 mmHg 58%
    17:00 +6°C° 0 mm 1 mps 750 mmHg 64%
    18:00 +4°C° 0 mm 1 mps 750 mmHg 70%
    19:00 +1°C° 0 mm 1 mps 751 mmHg 76%
    20:00 0°C° 0 mm 0 mps 751 mmHg 78%
    21:00 -1°C° 0 mm 0 mps 751 mmHg 81%
    22:00 -1°C° 0 mm 0 mps 752 mmHg 83%
    23:00 -1°C° 0 mm 0 mps 752 mmHg 83%

    Tomorrow, 15 November, Friday

    Time Temperature Precipitation Wind Pressure Humidity
    00:00 -1°C° 0 mm 0 mps 752 mmHg 83%
    01:00 -1°C° 0 mm 0 mps 752 mmHg 84%
    02:00 -1°C° 0 mm 0 mps 752 mmHg 84%
    03:00 -1°C° 0 mm 0 mps 751 mmHg 84%
    04:00 -1°C° 0 mm 0 mps 751 mmHg 84%
    05:00 -2°C° 0 mm 0 mps 751 mmHg 85%
    06:00 -2°C° 0 mm 0 mps 752 mmHg 87%
    07:00 -2°C° 0 mm 0 mps 752 mmHg 88%
    08:00 0°C° 0 mm 0 mps 752 mmHg 80%
    09:00 +2°C° 0 mm 0 mps 752 mmHg 72%
    10:00 +4°C° 0 mm 0 mps 752 mmHg 65%
    11:00 +5°C° 0 mm 0 mps 751 mmHg 61%
    12:00 +7°C° 0 mm 0 mps 751 mmHg 57%
    13:00 +8°C° 0 mm 0 mps 750 mmHg 54%
    14:00 +9°C° 0 mm 1 mps 750 mmHg 58%
    15:00 +8°C° 0 mm 1 mps 750 mmHg 62%
    16:00 +6°C° 0 mm 2 mps 750 mmHg 66%
    17:00 +5°C° 0 mm 2 mps 750 mmHg 74%
    18:00 +3°C° 0 mm 2 mps 750 mmHg 81%
    19:00 +2°C° 0 mm 1 mps 751 mmHg 88%
    20:00 +2°C° 0 mm 1 mps 751 mmHg 90%
    21:00 +1°C° 0 mm 1 mps 751 mmHg 92%
    22:00 0°C° 0 mm 1 mps 751 mmHg 93%
    23:00 -2°C° 0 mm 2 mps 751 mmHg 93%

    Day after tomorrow, 16 November, Saturday

    Time Temperature Precipitation Wind Pressure Humidity
    00:00 -2°C° 0 mm 2 mps 751 mmHg 92%
    01:00 -3°C° 0 mm 2 mps 751 mmHg 92%
    02:00 -3°C° 0 mm 2 mps 751 mmHg 93%
    03:00 -3°C° 0 mm 2 mps 750 mmHg 94%
    04:00 -3°C° 0 mm 2 mps 750 mmHg 95%
    05:00 -3°C° 0 mm 2 mps 750 mmHg 96%
    06:00 -3°C° 0 mm 2 mps 751 mmHg 96%
    07:00 -3°C° 0 mm 2 mps 751 mmHg 97%
    08:00 -2°C° 0 mm 2 mps 751 mmHg 90%
    09:00 +1°C° 0 mm 2 mps 751 mmHg 82%
    10:00 +2°C° 0 mm 2 mps 751 mmHg 75%
    11:00 +4°C° 0 mm 2 mps 750 mmHg 70%
    12:00 +5°C° 0 mm 2 mps 749 mmHg 65%
    13:00 +7°C° 0 mm 2 mps 749 mmHg 60%
    14:00 +7°C° 0 mm 2 mps 748 mmHg 63%
    15:00 +6°C° 0 mm 2 mps 748 mmHg 65%
    16:00 +6°C° 0 mm 2 mps 748 mmHg 67%
    17:00 +4°C° 0 mm 2 mps 748 mmHg 74%
    18:00 +4°C° 0 mm 1 mps 748 mmHg 82%
    19:00 +2°C° 0 mm 1 mps 749 mmHg 89%
    20:00 +1°C° 0 mm 1 mps 748 mmHg 89%
    21:00 +1°C° 0 mm 1 mps 748 mmHg 90%
    22:00 0°C° 0 mm 1 mps 748 mmHg 90%
    23:00 0°C° 0 mm 1 mps 748 mmHg 90%

    17 November, Sunday

    Time Temperature Precipitation Wind Pressure Humidity
    00:00 0°C° 0 mm 1 mps 747 mmHg 89%
    01:00 -1°C° 0 mm 0 mps 747 mmHg 88%
    02:00 -1°C° 0 mm 0 mps 747 mmHg 87%
    03:00 -1°C° 0 mm 0 mps 746 mmHg 86%
    04:00 -1°C° 0 mm 0 mps 746 mmHg 85%
    05:00 -1°C° 0 mm 0 mps 746 mmHg 83%
    06:00 -2°C° 0 mm 0 mps 746 mmHg 82%
    07:00 -2°C° 0 mm 0 mps 746 mmHg 80%
    08:00 +1°C° 0 mm 0 mps 746 mmHg 70%
    09:00 +3°C° 0 mm 0 mps 745 mmHg 60%
    10:00 +6°C° 0 mm 0 mps 745 mmHg 50%
    11:00 +7°C° 0 mm 0 mps 744 mmHg 47%
    12:00 +9°C° 0 mm 0 mps 743 mmHg 43%
    13:00 +11°C° 0 mm 0 mps 742 mmHg 40%
    14:00 +10°C° 0 mm 0 mps 742 mmHg 44%
    15:00 +10°C° 0 mm 1 mps 741 mmHg 48%
    16:00 +9°C° 0 mm 1 mps 741 mmHg 53%
    17:00 +8°C° 0 mm 1 mps 741 mmHg 59%
    18:00 +6°C° 0 mm 1 mps 741 mmHg 66%
    19:00 +3°C° 0 mm 0 mps 741 mmHg 72%
    20:00 +3°C° 0 mm 0 mps 741 mmHg 71%
    21:00 +4°C° 0 mm 0 mps 741 mmHg 70%
    22:00 +4°C° 0 mm 0 mps 741 mmHg 70%
    23:00 +4°C° 0 mm 0 mps 740 mmHg 69%

    18 November, Monday

    Time Temperature Precipitation Wind Pressure Humidity
    00:00 +4°C° 0 mm 0 mps 740 mmHg 69%
    01:00 +4°C° 0 mm 0 mps 740 mmHg 69%
    02:00 +3°C° 0 mm 0 mps 739 mmHg 71%
    03:00 +3°C° 0 mm 0 mps 739 mmHg 72%
    04:00 +2°C° 0 mm 0 mps 739 mmHg 74%
    05:00 +3°C° 0 mm 1 mps 739 mmHg 76%
    06:00 +3°C° 0 mm 1 mps 739 mmHg 78%
    07:00 +3°C° 0 mm 1 mps 739 mmHg 80%
    08:00 +5°C° 0 mm 1 mps 739 mmHg 76%
    09:00 +6°C° 0 mm 1 mps 739 mmHg 73%
    10:00 +8°C° 0 mm 1 mps 740 mmHg 70%
    11:00 +8°C° 0 mm 2 mps 739 mmHg 66%
    12:00 +9°C° 0 mm 2 mps 739 mmHg 62%
    13:00 +10°C° 0 mm 2 mps 738 mmHg 58%
    14:00 +10°C° 0 mm 2 mps 738 mmHg 59%
    15:00 +10°C° 0 mm 2 mps 738 mmHg 60%
    16:00 +10°C° 0 mm 2 mps 738 mmHg 61%
    17:00 +9°C° 0 mm 1 mps 738 mmHg 69%
    18:00 +7°C° 0 mm 1 mps 739 mmHg 78%
    19:00 +6°C° 0 mm 1 mps 739 mmHg 86%
    20:00 +6°C° 0 mm 1 mps 739 mmHg 86%
    21:00 +6°C° 0 mm 1 mps 740 mmHg 86%
    22:00 +5°C° 0 mm 0 mps 740 mmHg 87%
    23:00 +6°C° 0 mm 1 mps 740 mmHg 86%

    19 November, Tuesday

    Time Temperature Precipitation Wind Pressure Humidity
    00:00 +6°C° 0 mm 1 mps 740 mmHg 86%
    01:00 +6°C° 0 mm 1 mps 740 mmHg 86%
    02:00 +6°C° 0 mm 1 mps 740 mmHg 87%
    03:00 +6°C° 0 mm 1 mps 740 mmHg 88%
    04:00 +6°C° 0 mm 1 mps 739 mmHg 89%
    05:00 +6°C° 0 mm 1 mps 739 mmHg 90%
    06:00 +6°C° 0 mm 1 mps 739 mmHg 90%
    07:00 +5°C° 0 mm 1 mps 740 mmHg 91%
    08:00 +6°C° 0 mm 2 mps 740 mmHg 84%
    09:00 +7°C° 0 mm 2 mps 740 mmHg 77%
    10:00 +8°C° 0 mm 2 mps 740 mmHg 71%
    11:00 +9°C° 0.1 mm 2 mps 739 mmHg 69%
    12:00 +9°C° 0.1 mm 3 mps 739 mmHg 66%
    13:00 +10°C° 0.1 mm 3 mps 739 mmHg 64%
    14:00 +9°C° 0.3 mm 2 mps 738 mmHg 72%
    15:00 +8°C° 0.3 mm 2 mps 738 mmHg 79%
    16:00 +8°C° 0.3 mm 1 mps 738 mmHg 87%
    17:00 +7°C° 1 mm 2 mps 739 mmHg 89%
    18:00 +6°C° 1 mm 2 mps 739 mmHg 91%
    19:00 +5°C° 1 mm 3 mps 739 mmHg 93%
    20:00 +5°C° 0.2 mm 3 mps 740 mmHg 92%
    21:00 +4°C° 0.2 mm 3 mps 740 mmHg 91%
    22:00 +4°C° 0.2 mm 3 mps 740 mmHg 90%
    23:00 +5°C° 0.1 mm 2 mps 741 mmHg 90%
    Show more